Charlotte, NC

9:28 AM EDT on April 30, 2017 (GMT -0400)
Charlotte-Douglas International

Weather History for KCLT - June, 2013

Change the Weather History Date:

Saturday, June 22, 2013

  Actual Average Record
Temperature  
Mean Temperature 74 °F 77 °F  
Max Temperature 86 °F 87 °F 100 °F (2015)
Min Temperature 62 °F 66 °F 53 °F (2003)
Degree Days  
Heating Degree Days 0 0  
Month to date heating degree days 0 0  
Since 1 June heating degree days 0 0  
Since 1 July heating degree days 3221 3385  
Cooling Degree Days 9 12  
Month to date cooling degree days 235 211  
Year to date cooling degree days 404 374  
Since 1 June cooling degree days 235 211  
Growing Degree Days 24 (Base 50)    
Moisture  
Dew Point 63 °F    
Average Humidity 71    
Maximum Humidity 90    
Minimum Humidity 51    
Precipitation  
Precipitation 0.00 in 0.12 in 1.31 in (1883)
Month to date precipitation 6.27 2.85  
Year to date precipitation 25.02 19.81  
Snow  
Snow 0.00 in 0.00 in 0.00 in ()
Month to date snowfall 0.0 0.0  
Since 1 June snowfall 0.0 0.0  
Since 1 July snowfall 2.7 4.3  
Snow Depth 0.00 in    
Sea Level Pressure  
Sea Level Pressure 30.18 in    
Wind  
Wind Speed 6 mph (NNE)    
Max Wind Speed 13 mph    
Max Gust Speed 21 mph    
Visibility 10 miles    
Events      
T = Trace of Precipitation, MM = Missing Value Source: NWS Daily Summary

Daily Weather History Graph

Daily Weather History Graph

Search for Another Location

Airport or City:

Trip Planner

Search our weather history database for the weather conditions in past years. The results will help you decide how hot, cold, wet, or windy it might be!

Date:

Astronomy

Jun. 22, 2013 Rise Set
Actual Time 6:09 AM EDT 8:41 PM EDT
Civil Twilight 5:40 AM EDT 9:11 PM EDT
Nautical Twilight 5:03 AM EDT 9:48 PM EDT
Astronomical Twilight 4:22 AM EDT 10:29 PM EDT
Moon 7:57 PM EDT (6/22) 5:18 AM EDT (6/22)
Length of Visible Light 15h 31m
Length of Day
14h 31m
Waxing Gibbous, 99% of the Moon is Illuminated
Jun 22
Waxing Gibbous
Jun 23
Full
Jun 30
Last Quarter
Jul 8
New
Jul 15
First Quarter

Hourly Weather History & Observations

Time (EDT) Temp. Heat Index Dew Point Humidity Pressure Visibility Wind Dir Wind Speed Gust Speed Precip Events Conditions
12:52 AM 68.0 °F - 57.0 °F 68% 30.20 in 10.0 mi NE 3.5 mph - N/A   Clear
1:52 AM 66.0 °F - 57.9 °F 75% 30.19 in 10.0 mi North 3.5 mph - N/A   Clear
2:52 AM 63.0 °F - 59.0 °F 87% 30.19 in 10.0 mi North 3.5 mph - N/A   Clear
3:52 AM 62.1 °F - 59.0 °F 90% 30.18 in 10.0 mi NNW 5.8 mph - N/A   Clear
4:52 AM 62.1 °F - 59.0 °F 90% 30.19 in 10.0 mi North 6.9 mph - N/A   Clear
5:52 AM 62.1 °F - 59.0 °F 90% 30.20 in 10.0 mi North 5.8 mph - N/A   Scattered Clouds
6:17 AM 62.6 °F - 59.0 °F 88% 30.23 in 10.0 mi NNE 8.1 mph - N/A   Mostly Cloudy
6:27 AM 64.4 °F - 60.8 °F 88% 30.23 in 10.0 mi North 9.2 mph - N/A   Mostly Cloudy
6:40 AM 64.4 °F - 60.8 °F 88% 30.23 in 10.0 mi NNE 8.1 mph - N/A   Mostly Cloudy
6:52 AM 64.9 °F - 61.0 °F 87% 30.21 in 10.0 mi North 8.1 mph - N/A   Mostly Cloudy
7:52 AM 68.0 °F - 62.1 °F 81% 30.22 in 10.0 mi NNE 6.9 mph - N/A   Mostly Cloudy
8:52 AM 71.1 °F - 66.0 °F 84% 30.22 in 10.0 mi North 8.1 mph - N/A   Scattered Clouds
9:52 AM 75.0 °F - 66.0 °F 73% 30.20 in 10.0 mi NNE 4.6 mph - N/A   Scattered Clouds
10:52 AM 78.1 °F - 66.0 °F 66% 30.21 in 10.0 mi NNE 8.1 mph - N/A   Mostly Cloudy
11:52 AM 80.1 °F 82.1 °F 66.0 °F 62% 30.22 in 10.0 mi NNE 5.8 mph 18.4 mph N/A   Mostly Cloudy
12:52 PM 80.1 °F 82.3 °F 66.9 °F 64% 30.21 in 10.0 mi Variable 5.8 mph - N/A   Mostly Cloudy
1:52 PM 82.9 °F 84.6 °F 64.9 °F 54% 30.20 in 10.0 mi North 8.1 mph - N/A   Mostly Cloudy
2:52 PM 82.9 °F 85.0 °F 66.0 °F 56% 30.18 in 10.0 mi NNE 5.8 mph - N/A   Mostly Cloudy
3:52 PM 82.0 °F 83.8 °F 64.9 °F 56% 30.16 in 10.0 mi North 8.1 mph - N/A   Mostly Cloudy
4:52 PM 84.9 °F 86.1 °F 64.0 °F 49% 30.13 in 10.0 mi NNE 5.8 mph - N/A   Mostly Cloudy
5:52 PM 84.0 °F 85.8 °F 64.9 °F 53% 30.13 in 10.0 mi NNE 4.6 mph - N/A   Mostly Cloudy
6:52 PM 82.9 °F 84.6 °F 64.9 °F 54% 30.12 in 10.0 mi NE 6.9 mph - N/A   Mostly Cloudy
7:52 PM 82.0 °F 83.4 °F 64.0 °F 54% 30.12 in 10.0 mi NE 5.8 mph - N/A   Mostly Cloudy
8:52 PM 79.0 °F - 66.9 °F 66% 30.12 in 10.0 mi SE 8.1 mph - N/A   Mostly Cloudy
9:52 PM 78.1 °F - 68.0 °F 71% 30.14 in 10.0 mi SE 5.8 mph - N/A   Mostly Cloudy
10:52 PM 78.1 °F - 68.0 °F 71% 30.15 in 10.0 mi East 5.8 mph - N/A   Overcast
11:52 PM 75.0 °F - 68.0 °F 79% 30.16 in 10.0 mi Calm Calm - N/A   Overcast